Weather History for SKCC - March, 2013

Change the Weather History Date:

Thursday, March 7, 2013

  Actual Average (SVSA) Record (SVSA)
Temperature  
Mean Temperature 84 °F -  
Max Temperature 95 °F 89 °F 95 °F (2013)
Min Temperature 73 °F 71 °F 68 °F (2012)
Cooling Degree Days 19    
Growing Degree Days 34 (Base 50)    
Moisture  
Dew Point 72 °F    
Average Humidity 67    
Maximum Humidity 94    
Minimum Humidity 30    
Precipitation  
Precipitation 0.00 in 0.09 in - ()
Sea Level Pressure  
Sea Level Pressure 29.91 in    
Wind  
Wind Speed 5 mph ()    
Max Wind Speed 21 mph    
Max Gust Speed -    
Visibility 5.5 miles    
Events Fog    
Averages and records for this station are not official NWS values.
T = Trace of Precipitation, MM = Missing Value Source: Averaged Metar Reports

Daily Weather History Graph

Daily Weather History Graph

Search for Another Location

Airport or City:

Trip Planner

Search our weather history database for the weather conditions in past years. The results will help you decide how hot, cold, wet, or windy it might be!

Date:

Astronomy

Mar. 07, 2013 Rise Set
Actual Time 6:00 AM COT 6:01 PM COT
Civil Twilight 5:39 AM COT 6:22 PM COT
Nautical Twilight 5:15 AM COT 6:46 PM COT
Astronomical Twilight 4:51 AM COT 7:10 PM COT
Moon 2:17 AM COT (3/7) 2:23 PM COT (3/7)
Length of Visible Light 12h 42m
Length of Day
12h 01m
Waning Crescent, 20% of the Moon is Illuminated
Mar 7
Waning Crescent
Mar 11
New
Mar 19
First Quarter
Mar 27
Full
Apr 2
Last Quarter

Hourly Weather History & Observations

Time (COT) Temp. Heat Index Dew Point Humidity Pressure Visibility Wind Dir Wind Speed Gust Speed Precip Events Conditions
5:00 AM - - - N/A% 29.94 in 3.1 mi North 4.6 mph - N/A Fog Patches of Fog
5:30 AM - - - N/A% 29.94 in 3.1 mi North 4.6 mph - N/A Fog Patches of Fog
6:00 AM 75.2 °F - 73.4 °F 94% 29.98 in 3.1 mi Calm Calm - N/A Fog Patches of Fog
7:00 AM 76 °F - 72 °F 86% 29.89 in 3 mi Calm Calm - - Fog Light Fog
7:00 AM 75.2 °F - 73.4 °F 94% 30.00 in 3.1 mi Calm Calm - N/A Fog Patches of Fog
8:00 AM 77.0 °F - 73.4 °F 89% 30.00 in 3.7 mi North 4.6 mph - N/A Fog Fog
9:00 AM 80.6 °F 85.4 °F 73.4 °F 79% 30.00 in 5.0 mi North 4.6 mph - N/A   Scattered Clouds
10:00 AM 83 °F - 72 °F 63% 29.89 in 5 mi North 4.5 mph - -   Haze
10:00 AM 82.4 °F 87.2 °F 71.6 °F 70% 30.00 in 5.0 mi North 4.6 mph - N/A   Scattered Clouds
11:00 AM 87.8 °F 92.6 °F 69.8 °F 55% 29.98 in 5.6 mi Variable 2.3 mph - N/A   Scattered Clouds
12:00 PM 89.6 °F 91.1 °F 64.4 °F 43% 29.94 in 5.6 mi South 11.5 mph - N/A   Scattered Clouds
1:00 PM 93 °F - 65 °F 30% 29.78 in 9 mi SSE 20.1 mph - -   Haze
1:00 PM 93.2 °F 96.2 °F 66.2 °F 41% 29.90 in 6.2 mi SSE 20.7 mph - N/A   Scattered Clouds
2:00 PM 95.0 °F 97.0 °F 64.4 °F 36% 29.86 in 6.2 mi South 16.1 mph - N/A   Partly Cloudy
3:00 PM 91.4 °F 98.4 °F 71.6 °F 52% 29.84 in 6.2 mi North 11.5 mph - N/A   Scattered Clouds
4:00 PM 89.6 °F 99.8 °F 75.2 °F 62% 29.85 in 6.2 mi North 10.4 mph - N/A   Scattered Clouds
5:00 PM 87.8 °F 95.6 °F 73.4 °F 62% 29.86 in 6.2 mi NW 5.8 mph - N/A   Scattered Clouds
6:00 PM 86.0 °F 93.4 °F 73.4 °F 66% 29.88 in 6.2 mi North 4.6 mph - N/A   Scattered Clouds
7:00 PM 83 °F - 74 °F 68% 29.79 in 7 mi 2.2 mph - -   Haze
7:00 PM 82.4 °F 88.2 °F 73.4 °F 74% 29.90 in 6.2 mi Variable 2.3 mph - N/A   Scattered Clouds
8:00 PM 82.4 °F 88.2 °F 73.4 °F 74% 29.93 in 6.2 mi Calm Calm - N/A   Scattered Clouds
9:00 PM 82.4 °F 88.2 °F 73.4 °F 74% 29.95 in 6.2 mi SW 3.5 mph - N/A   Scattered Clouds
10:00 PM 80 °F - 74 °F 77% 29.84 in 7 mi 2.2 mph - -   Haze
10:00 PM 80.6 °F 85.4 °F 73.4 °F 79% 29.96 in 6.2 mi Variable 2.3 mph - N/A   Scattered Clouds
11:00 PM 80.6 °F 85.4 °F 73.4 °F 79% 29.97 in 6.2 mi NNE 4.6 mph - N/A   Scattered Clouds